Вернуться в каталог

ARIANE 2 DEB

АктивенGTO
NORAD 27625·DEBRIS·🇫🇷 France

Запущен Oct 28, 1988 с Guiana Space Centre

Loading…

TLE

УстаревающийSource: Space-Track

Эпоха: Sep 14, 2026, 06:51 UTC

1 27625U 88098H   26257.28547769  .00000037  00000-0  23914-1 0  9995
2 27625   4.0991 284.5921 7256823 335.3454 153.2340  2.00937597176686

Отслеживайте ARIANE 2 DEB в реальном времени с AllMySat

Download on the App Store